Starlink 32767

operational
NORAD ID: 62601 Int'l Des: 2025-008 Owner: SPXS Country: US Constellation: starlink
LEOCIRCULAR

关于 Starlink 32767

正在加载描述...

实时位置

正在加载3D地球...

即将过境

高度历史

Altitude vs Time

uPlot chart will show altitude changes over time

两行轨道根数

1 62601U 25008Q 25354.03294355 .00025643 00000-0 93803-3 0 9996
2 62601 43.0036 7.6342 0001307 262.8642 97.2061 15.27584055 53449
Epoch: Dec 20, 2025 • Age: 11 hours

当前状态

高度 484.6 km
速度 7.62 km/s
星下点 -10.93°S, 88.29°E
发射日期 Jan 13, 2025
运行时间 0.9 years
类型 internet

技术详情

分类 Payload
质量 730.00 kg
干质量 700.00 kg
总质量 730.00 kg
长度 0.30 m
直径 4.10 m
跨度 29.00 m
形状 Box + pan
制造商 SPXS
平台类型 Starlink V2M
阶段状态 In Orbit
所有者/国家 SPXS/US

大型星座

Loading constellations...